Tracking 19795 objects as of 20-Jul-2019
HD Live streaming from Space Station
objects crossing your sky now

FENGYUN 1C DEB

Track FENGYUN 1C DEB now!
10-day predictions


NORAD ID: 41007
Int'l Code: 1999-025EXM
Perigee: 843.4 km
Apogee: 1,122.1 km
Inclination: 100.0 °
Period: 104.6 minutes
Semi major axis: 7353 km
RCS: Unknown
Launch date: May 10, 1999
Source: People's Republic of China (PRC)
Launch site: Taiyaun Space Center, China (TSC)

Note: This is SATELLITE DEBRIS
aabbcc
Your satellite tracking list
Your tracking list is empty




NASA's NSSDC Master Catalog

Two Line Element Set (TLE):
1 41007U 99025EXM 19194.86745062  .00000214  00000-0  23449-3 0  9991
2 41007  99.9510  70.7671 0189529 355.0663   4.8614 13.76705237250806
Source of the keplerian elements: AFSPC